Weather History for Sanford, NC

Change the Weather History Date:

Thursday, May 29, 2014

  Actual Average (KRDU) Record (KRDU)
Temperature  
Mean Temperature 72 °F 72 °F  
Max Temperature 80 °F 83 °F 98 °F (1941)
Min Temperature 64 °F 61 °F 47 °F (1968)
Degree Days  
Heating Degree Days 0 1  
Month to date heating degree days 53  
Since 1 July heating degree days 3242  
Cooling Degree Days 7 7  
Month to date cooling degree days 133  
Year to date cooling degree days 194  
Growing Degree Days 22 (Base 50)    
Moisture  
Dew Point 66 °F    
Average Humidity 82    
Maximum Humidity 98    
Minimum Humidity 61    
Precipitation  
Precipitation 0.00 in 0.12 in 2.46 in (1984)
Month to date precipitation 3.02  
Year to date precipitation 16.78  
Sea Level Pressure  
Sea Level Pressure 30.05 in    
Wind  
Wind Speed 3 mph (NE)    
Max Wind Speed 9 mph    
Max Gust Speed -    
Visibility 9 miles    
Events      
T = Trace of Precipitation, MM = Missing Value Source: NWS Daily Summary

Daily Weather History Graph

Daily Weather History Graph

Search for Another Location

Airport:

Trip Planner

Search our weather history database for the weather conditions in past years. The results will help you decide how hot, cold, wet, or windy it might be!

Date:

Astronomy

May. 29, 2014 Rise Set
Actual Time 6:03 AM EDT 8:24 PM EDT
Civil Twilight 5:33 AM EDT 8:54 PM EDT
Nautical Twilight 4:57 AM EDT 9:30 PM EDT
Astronomical Twilight 4:18 AM EDT 10:09 PM EDT
Moon 6:53 AM EDT (5/29) 9:15 PM EDT (5/29)
Length of Visible Light 15h 20m
Length of Day
14h 21m
New Moon, 1% of the Moon is Illuminated
May 29
New Moon
Jun 5
First Quarter
Jun 13
Full
Jun 19
Last Quarter
Jun 27
New

Hourly Weather History & Observations

Time (EDT) Temp. Heat Index Dew Point Humidity Pressure Visibility Wind Dir Wind Speed Gust Speed Precip Events Conditions
12:15 AM 69.1 °F - 68.4 °F 98% 29.99 in 2.5 mi Calm Calm - N/A   Mist
12:35 AM 68.9 °F - 68.0 °F 97% 29.99 in 5.0 mi Calm Calm - N/A   Mist
12:55 AM 68.9 °F - 68.2 °F 98% 29.99 in 3.0 mi Calm Calm - N/A   Mist
1:15 AM 68.4 °F - 67.6 °F 98% 29.99 in 5.0 mi Calm Calm - N/A   Mist
1:35 AM 67.6 °F - 66.7 °F 97% 29.99 in 3.0 mi Calm Calm - N/A   Mist
1:55 AM 67.6 °F - 66.9 °F 98% 29.99 in 2.5 mi Calm Calm - N/A   Mist
2:15 AM 66.9 °F - 66.4 °F 98% 29.99 in 1.2 mi Calm Calm - N/A   Mist
2:35 AM 70.0 °F - 68.9 °F 96% 30.00 in 7.0 mi North 3.5 mph - N/A   Unknown
2:55 AM 70.2 °F - 69.1 °F 96% 29.99 in 5.0 mi East 3.5 mph - N/A   Mist
3:15 AM 71.4 °F - 67.3 °F 87% 29.99 in 10.0 mi Calm Calm - N/A   Unknown
3:35 AM 69.3 °F - 67.1 °F 93% 30.00 in 10.0 mi Calm Calm - N/A   Unknown
3:55 AM 68.4 °F - 66.6 °F 94% 30.00 in 7.0 mi Calm Calm - N/A   Unknown
4:15 AM 67.3 °F - 66.0 °F 96% 30.00 in 7.0 mi Calm Calm - N/A   Unknown
4:35 AM 68.9 °F - 65.3 °F 88% 29.99 in 10.0 mi ENE 3.5 mph - N/A   Unknown
5:15 AM 66.2 °F - 64.8 °F 95% 29.99 in 5.0 mi Calm Calm - N/A   Mist
5:35 AM 66.2 °F - 64.8 °F 95% 29.99 in 7.0 mi Calm Calm - N/A   Unknown
5:55 AM 64.4 °F - 63.3 °F 96% 30.00 in 5.0 mi Calm Calm - N/A   Mist
6:15 AM 64.8 °F - 63.9 °F 97% 30.01 in 7.0 mi Calm Calm - N/A   Unknown
6:35 AM 64.8 °F - 63.9 °F 97% 30.01 in 4.0 mi Calm Calm - N/A   Mist
6:55 AM 64.4 °F - 63.7 °F 98% 30.01 in 4.0 mi Calm Calm - N/A   Mist
7:15 AM 65.7 °F - 64.6 °F 96% 30.03 in 7.0 mi NE 3.5 mph - N/A   Unknown
7:35 AM 67.5 °F - 65.3 °F 93% 30.04 in 10.0 mi NNE 3.5 mph - N/A   Unknown
7:55 AM 68.9 °F - 65.7 °F 89% 30.04 in 10.0 mi North 3.5 mph - N/A   Unknown
8:15 AM 69.8 °F - 65.5 °F 86% 30.06 in 10.0 mi NNE 5.8 mph - N/A   Unknown
8:35 AM 70.9 °F - 65.8 °F 84% 30.06 in 10.0 mi NE 4.6 mph - N/A   Unknown
8:55 AM 71.8 °F - 65.5 °F 80% 30.06 in 10.0 mi NE 5.8 mph - N/A   Unknown
9:15 AM 72.3 °F - 65.7 °F 79% 30.07 in 10.0 mi Calm Calm - N/A   Unknown
9:35 AM 73.4 °F - 65.1 °F 75% 30.08 in 10.0 mi East 5.8 mph - N/A   Unknown
9:55 AM 75.0 °F - 65.8 °F 73% 30.08 in 10.0 mi East 3.5 mph - N/A   Unknown
10:15 AM 75.0 °F - 65.5 °F 72% 30.08 in 10.0 mi NE 8.1 mph - N/A   Unknown
10:35 AM 75.2 °F - 65.5 °F 72% 30.09 in 10.0 mi ENE 6.9 mph - N/A   Unknown
10:55 AM 76.3 °F - 64.9 °F 68% 30.09 in 10.0 mi ENE 4.6 mph - N/A   Unknown
11:15 AM 76.3 °F - 65.1 °F 68% 30.09 in 10.0 mi ENE 5.8 mph - N/A   Unknown
11:35 AM 78.3 °F - 66.2 °F 66% 30.10 in 10.0 mi NE 4.6 mph - N/A   Unknown
11:55 AM 77.0 °F - 65.3 °F 67% 30.09 in 10.0 mi East 6.9 mph - N/A   Unknown
12:15 PM 77.7 °F - 66.2 °F 68% 30.10 in 10.0 mi NE 6.9 mph - N/A   Unknown
12:35 PM 76.8 °F - 65.5 °F 68% 30.10 in 10.0 mi ENE 5.8 mph - N/A   Unknown
12:55 PM 77.5 °F - 65.5 °F 66% 30.10 in 10.0 mi NE 4.6 mph - N/A   Unknown
1:15 PM 78.4 °F - 65.7 °F 65% 30.09 in 10.0 mi NE 3.5 mph - N/A   Unknown
1:35 PM 78.4 °F - 65.8 °F 65% 30.09 in 10.0 mi NE 3.5 mph - N/A   Unknown
2:15 PM 79.5 °F - 66.0 °F 63% 30.08 in 10.0 mi NNE 5.8 mph - N/A   Unknown
2:35 PM 80.1 °F 82.3 °F 66.7 °F 64% 30.08 in 10.0 mi ENE 5.8 mph - N/A   Unknown
2:55 PM 79.9 °F - 65.5 °F 61% 30.07 in 10.0 mi North 5.8 mph - N/A   Unknown
3:15 PM 79.2 °F - 67.6 °F 68% 30.06 in 10.0 mi NNE 8.1 mph - N/A   Unknown
3:55 PM 77.5 °F - 67.6 °F 71% 30.05 in 10.0 mi NNE 9.2 mph - N/A   Unknown
4:15 PM 76.6 °F - 67.3 °F 73% 30.05 in 10.0 mi NE 8.1 mph - N/A   Unknown
4:35 PM 77.7 °F - 67.1 °F 70% 30.04 in 10.0 mi NNE 9.2 mph - N/A   Unknown
4:55 PM 76.8 °F - 67.1 °F 72% 30.04 in 10.0 mi NNE 9.2 mph - N/A   Unknown
5:15 PM 76.1 °F - 67.1 °F 74% 30.04 in 10.0 mi ENE 5.8 mph - N/A   Unknown
5:35 PM 76.6 °F - 67.1 °F 72% 30.05 in 10.0 mi NNE 5.8 mph - N/A   Unknown
5:55 PM 77.2 °F - 66.7 °F 70% 30.04 in 10.0 mi NE 5.8 mph - N/A   Unknown
6:15 PM 77.4 °F - 66.7 °F 70% 30.04 in 10.0 mi NE 6.9 mph - N/A   Unknown
6:35 PM 76.8 °F - 67.1 °F 72% 30.04 in 10.0 mi ENE 4.6 mph - N/A   Unknown
6:55 PM 76.3 °F - 67.1 °F 73% 30.06 in 10.0 mi NNE 6.9 mph - N/A   Unknown
7:15 PM 75.2 °F - 67.5 °F 77% 30.06 in 10.0 mi NE 4.6 mph - N/A   Unknown
7:35 PM 75.0 °F - 66.7 °F 75% 30.07 in 10.0 mi NNE 9.2 mph - N/A   Unknown
7:55 PM 73.9 °F - 66.9 °F 79% 30.07 in 10.0 mi NE 5.8 mph - N/A   Unknown
8:15 PM 73.0 °F - 66.9 °F 81% 30.07 in 10.0 mi Calm Calm - N/A   Unknown
8:35 PM 72.5 °F - 66.7 °F 82% 30.07 in 10.0 mi NE 5.8 mph - N/A   Unknown
8:55 PM 71.4 °F - 66.4 °F 84% 30.07 in 10.0 mi NE 5.8 mph - N/A   Unknown
9:15 PM 70.7 °F - 66.2 °F 86% 30.07 in 10.0 mi ENE 4.6 mph - N/A   Unknown
9:55 PM 70.5 °F - 65.8 °F 85% 30.09 in 10.0 mi NE 3.5 mph - N/A   Unknown
10:15 PM 70.3 °F - 65.5 °F 85% 30.10 in 10.0 mi NE 5.8 mph - N/A   Unknown
10:35 PM 70.2 °F - 65.5 °F 85% 30.12 in 10.0 mi NE 4.6 mph - N/A   Unknown
10:55 PM 69.8 °F - 65.3 °F 86% 30.11 in 10.0 mi Calm Calm - N/A   Unknown
11:15 PM 69.1 °F - 65.3 °F 88% 30.12 in 10.0 mi Calm Calm - N/A   Unknown
11:35 PM 68.9 °F - 65.5 °F 89% 30.12 in 10.0 mi Calm Calm - N/A   Unknown
11:55 PM 69.1 °F - 65.5 °F 88% 30.11 in 10.0 mi Calm Calm - N/A   Unknown